CAPE
0 0 0 0 0 0 0 0 0 0 0 0 0 0 0 0 0 0 0 0 0 0 0 0 0 0 0 0 0 0 0 0 0 0 0 0 0 0 0 0 0 0 0 0 0
9 6 2 0 0 0 0 0 0 0 0 0 0 0 0 0 0 0 0 0 0 0 0 0 0 0 0 0 0 0 0 0 0 0 0 0 0 0 0 0 0 0 0 0 0
9 11 4 0 0 0 0 0 0 0 0 0 0 0 0 0 0 0 0 0 0 0 0 0 0 0 0 0 0 0 0 0 0 0 0 0 0 0 0 0 0 0 0 0 0
0 0 0 0 0 0 0 0 0 0 0 0 0 0 0 0 0 0 0 0 0 0 0 0 0 0 0 0 0 0 0 0 0 0 0 0 0 0 0 0 0 0 0 0 0
0 0 0 0 0 0 0 0 0 0 0 0 0 0 0 0 0 0 0 0 0 0 0 0 0 0 0 0 0 0 0 0 0 0 0 0 0 0 0 0 0 0 0 0 0
1 0 0 0 0 0 0 0 0 0 0 0 0 0 0 0 0 0 0 0 0 0 0 0 0 0 0 0 0 0 0 0 0 0 0 0 0 0 0 0 0 0 0 0 0
1 0 0 0 0 0 0 0 0 0 0 0 0 0 0 0 0 0 0 0 0 0 0 0 0 0 0 0 0 0 0 0 0 0 0 0 0 0 0 0 0 0 0 0 0
0 0 0 0 0 0 0 0 0 0 0 0 0 0 0 0 0 0 0 0 0 0 0 0 0 0 0 0 0 0 0 0 0 0 0 0 0 0 0 0 0 0 0 0 0
0 0 0 0 0 0 0 0 0 0 0 0 0 0 0 0 0 0 0 0 0 0 0 0 0 0 0 0 0 0 0 0 0 0 0 0 0 0 0 0 0 0 0 0 0
0 0 0 0 0 0 0 0 0 0 0 0 0 0 0 0 0 0 0 0 0 0 0 0 0 0 0 0 0 0 0 0 0 0 0 0 0 0 0 0 0 0 0 0 0
0 0 0 0 0 0 0 0 0 0 0 0 0 0 0 0 0 0 0 0 0 0 0 0 0 0 0 0 0 0 0 0 0 0 0 0 0 0 0 0 0 0 0 0 0
0 0 0 0 0 0 0 0 0 0 0 0 0 0 0 0 0 0 0 0 0 0 0 0 0 0 0 0 0 0 0 0 0 0 0 0 0 0 0 0 0 0 0 0 0
0 0 0 0 0 0 0 0 0 0 0 0 0 0 0 0 0 0 0 0 0 0 0 0 0 0 0 0 0 0 0 0 0 0 0 0 0 0 0 0 0 0 0 0 0
0 0 0 0 0 0 0 0 0 0 0 0 0 0 0 0 0 0 0 0 0 0 0 0 0 0 0 0 0 0 0 0 0 0 0 0 0 0 0 0 0 0 0 0 0
0 0 0 0 0 0 0 0 0 0 0 0 0 0 0 0 0 0 0 0 0 0 0 0 0 0 0 0 0 0 0 0 0 0 0 0 0 0 0 0 0 0 0 0 0
0 0 0 0 0 0 0 0 0 0 0 0 0 0 0 0 0 0 0 0 0 0 0 0 0 0 0 0 0 0 0 0 0 0 0 0 0 0 0 0 0 0 0 0 0
0 0 0 0 0 0 0 0 0 0 0 0 0 0 0 0 0 0 0 0 0 0 0 0 0 0 0 0 0 0 0 0 0 0 0 0 0 0 0 0 0 0 0 0 0
0 0 0 0 0 0 0 0 0 0 0 0 0 0 0 0 0 0 0 0 0 0 0 0 0 0 0 0 0 0 0 0 0 0 0 0 0 0 0 0 0 0 0 0 0
0 0 0 0 0 0 0 0 0 0 0 0 0 0 0 0 0 0 0 0 0 0 0 0 0 0 0 0 0 0 0 0 0 0 0 0 0 0 0 0 0 0 0 0 0
0 0 0 0 0 0 0 0 0 0 0 0 0 0 0 0 0 0 0 0 0 0 0 0 0 0 0 0 0 0 0 0 0 0 0 0 0 0 0 0 0 0 0 0 0
0 0 0 0 0 0 0 0 0 0 0 0 0 0 0 0 0 0 0 0 0 0 0 0 0 0 0 0 0 0 0 0 0 0 0 0 0 0 0 0 0 0 0 1 42
0 0 0 0 0 0 0 0 0 0 0 0 0 0 0 0 0 0 0 0 0 0 0 0 0 0 0 0 0 0 0 0 0 0 0 5 0 0 0 0 0 0 5 41 44
0 0 0 0 0 0 0 0 0 0 0 0 0 0 0 0 0 0 0 0 0 0 0 0 0 0 0 0 0 0 0 0 1 30 7 18 1 0 0 0 0 1 24 80 54
0 0 0 0 0 0 0 0 0 0 0 0 0 0 0 0 0 0 0 0 0 0 0 0 0 0 0 0 0 0 0 0 0 28 2 6 5 2 3 3 5 0 14 70 77
0 0 0 0 0 0 0 0 0 0 0 0 0 0 0 0 0 0 0 0 0 0 0 0 0 0 0 0 0 0 0 0 0 0 18 3 9 9 4 17 0 21 56 63 64
0 0 0 0 0 0 0 0 0 0 0 0 0 0 0 0 0 0 0 0 0 0 0 0 0 0 0 0 0 0 0 0 0 4 5 0 0 4 10 4 8 32 37 56 66
0 0 0 0 0 0 0 0 0 0 0 0 0 0 0 0 0 0 0 0 0 0 0 0 0 5 0 0 1 0 0 0 0 0 4 5 7 8 27 31 3 55 80 94 142
CIN
-0 -0 -0 -0 -0 -0 -0 -0 -0 -0 -0 -0 -0 -0 -0 -0 -0 -0 -0 -0 -0 -0 -0 -0 -0 -0 -0 -0 -0 -0 -0 -0 -0 -0 -0 -0 -0 -0 -0 -0 -0 -0 -0 -0 -0
-0 -0 -0 -0 -0 -0 -0 -0 -0 -0 -0 -0 -0 -0 -0 -0 -0 -0 -0 -0 -0 -0 -0 -0 -0 -0 -0 -0 -0 -0 -0 -0 -0 -0 -0 -0 -0 -0 -0 -0 -0 -0 -0 -0 -0
-0 -0 -0 -0 -0 -0 -0 -0 -0 -0 -0 -0 -0 -0 -0 -0 -0 -0 -0 -0 -0 -0 -0 -0 -0 -0 -0 -0 -0 -0 -0 -0 -0 -0 -0 -0 -0 -0 -0 -0 -0 -0 -0 -0 -0
-0 -0 -0 -0 -0 -0 -0 -0 -0 -0 -0 -0 -0 -0 -0 -0 -0 -0 -0 -0 -0 -0 -0 -0 -0 -0 -0 -0 -0 -0 -0 -0 -0 -0 -0 -0 -0 -0 -0 -0 -0 -0 -0 -0 -0
-0 -0 -0 -0 -0 -0 -0 -0 -0 -0 -0 -0 -0 -0 -0 -0 -0 -0 -0 -0 -0 -0 -0 -0 -0 -0 -0 -0 -0 -0 -0 -0 -0 -0 -0 -0 -0 -0 -0 -0 -0 -0 -0 -0 -0
-0 -0 -0 -0 -0 -0 -0 -0 -0 -0 -0 -0 -0 -0 -0 -0 -0 -0 -0 -0 -0 -0 -0 -0 -0 -0 -0 -0 -0 -0 -0 -0 -0 -0 -0 -0 -0 -0 -0 -0 -0 -0 -0 -0 -0
-0 -0 -0 -0 -0 -0 -0 -0 -0 -0 -0 -0 -0 -0 -0 -0 -0 -0 -0 -0 -0 -0 -0 -0 -0 -0 -0 -0 -0 -0 -0 -0 -0 -0 -0 -0 -0 -0 -0 -0 -0 -0 -0 -0 -0
-0 -0 -0 -0 -0 -0 -0 -0 -0 -0 -0 -0 -0 -0 -0 -0 -0 -0 -0 -0 -0 -0 -0 -0 -0 -0 -0 -0 -0 -0 -0 -0 -0 -0 -0 -0 -0 -0 -0 -0 -0 -0 -0 -0 -0
-0 -0 -0 -0 -0 -0 -0 -0 -0 -0 -0 -0 -0 -0 -0 -0 -0 -0 -0 -0 -0 -0 -0 -0 -0 -0 -0 -0 -0 -0 -0 -0 -0 -0 -0 -0 -0 -0 -0 -0 -0 -0 -0 -0 -0
-0 -0 -0 -0 -0 -0 -0 -0 -0 -0 -0 -0 -0 -0 -0 -0 -0 -0 -0 -0 -0 -0 -0 -0 -0 -0 -0 -0 -0 -0 -0 -0 -0 -0 -0 -0 -0 -0 -0 -0 -0 -0 -0 -0 -0
-0 -0 -0 -0 -0 -0 -0 -0 -0 -0 -0 -0 -0 -0 -0 -0 -0 -0 -0 -0 -0 -0 -0 -0 -0 -0 -0 -0 -0 -0 -0 -0 -0 -0 -0 -0 -0 -0 -0 -0 -0 -0 -0 -0 -0
-0 -0 -0 -0 -0 -0 -0 -0 -0 -0 -0 -0 -0 -0 -0 -0 -0 -0 -0 -0 -0 -0 -0 -0 -0 -0 -0 -0 -0 -0 -0 -0 -0 -0 -0 -0 -0 -0 -0 -0 -0 -0 -0 -0 -0
-0 -0 -0 -0 -0 -0 -0 -0 -0 -0 -0 -0 -0 -0 -0 -0 -0 -0 -0 -0 -0 -0 -0 -0 -0 -0 -0 -0 -0 -0 -0 -0 -0 -0 -0 -0 -0 -0 -0 -0 -0 -0 -0 -0 -0
-0 -0 -0 -0 -0 -0 -0 -0 -0 -0 -0 -0 -0 -0 -0 -0 -0 -0 -0 -0 -0 -0 -0 -0 -0 -0 -0 -0 -0 -0 -0 -0 -0 -0 -0 -0 -0 -0 -0 -0 -0 -0 -0 -0 -0
-0 -0 -0 -0 -0 -0 -0 -0 -0 -0 -0 -0 -0 -0 -0 -0 -0 -0 -0 -0 -0 -0 -0 -0 -0 -0 -0 -0 -0 -0 -0 -0 -0 -0 -0 -0 -0 -0 -0 -0 -0 -0 -0 -0 -0
-0 -0 -0 -0 -0 -0 -0 -0 -0 -0 -0 -0 -0 -0 -0 -0 -0 -0 -0 -0 -0 -0 -0 -0 -0 -0 -0 -0 -0 -0 -0 -0 -0 -0 -0 -0 -0 -0 -0 -0 -0 -0 -0 -0 -0
-0 -0 -0 -0 -0 -0 -0 -0 -0 -0 -0 -0 -0 -0 -0 -0 -0 -0 -0 -0 -0 -0 -0 -0 -0 -0 -0 -0 -0 -0 -0 -0 -0 -0 -0 -0 -0 -0 -0 -0 -0 -0 -0 -0 -0
-0 -0 -0 -0 -0 -0 -0 -0 -0 -0 -0 -0 -0 -0 -0 -0 -0 -0 -0 -0 -0 -0 -0 -0 -0 -0 -0 -0 -0 -0 -0 -0 -0 -0 -0 -0 -0 -0 -0 -0 -0 -0 -0 -0 -0
-0 -0 -0 -0 -0 -0 -0 -0 -0 -0 -0 -0 -0 -0 -0 -0 -0 -0 -0 -0 -0 -0 -0 -0 -0 -0 -0 -0 -0 -0 -0 -0 -0 -0 -0 -0 -0 -0 -0 -0 -0 -0 -0 -0 -0
-0 -0 -0 -0 -0 -0 -0 -0 -0 -0 -0 -0 -0 -0 -0 -0 -0 -0 -0 -0 -0 -0 -0 -0 -0 -0 -0 -0 -0 -0 -0 -0 -0 -0 -0 -0 -0 -0 -0 -0 -0 -0 -0 -0 -0
-0 -0 -0 -0 -0 -0 -0 -0 -0 -0 -0 -0 -0 -0 -0 -0 -0 -0 -0 -0 -0 -0 -0 -0 -0 -0 -0 -0 -0 -0 -0 -0 -0 -0 -0 -0 -0 -0 -0 -0 -0 -0 -0 -0 -1
-0 -0 -0 -0 -0 -0 -0 -0 -0 -0 -0 -0 -0 -0 -0 -0 -0 -0 -0 -0 -0 -0 -0 -0 -0 -0 -0 -0 -0 -0 -0 -0 -0 -0 -0 -0 -0 -0 -0 -0 -0 -1 -0 -0 -1
-0 -0 -0 -0 -0 -0 -0 -0 -0 -0 -0 -0 -0 -0 -0 -0 -0 -0 -0 -0 -0 -0 -0 -0 -0 -0 -0 -0 -0 -0 -0 -0 -0 -0 -0 -0 -0 -0 -0 -0 -0 -0 -0 -0 -1
-0 -0 -0 -0 -0 -0 -0 -0 -0 -0 -0 -0 -0 -0 -0 -0 -0 -0 -0 -0 -0 -0 -0 -0 -0 -0 -0 -0 -0 -0 -0 -0 -0 -0 -0 -0 -0 -0 -0 -0 -0 -0 -0 -1 -0
-0 -0 -0 -0 -0 -0 -0 -0 -0 -0 -0 -0 -0 -0 -0 -0 -0 -0 -0 -0 -0 -0 -0 -0 -0 -0 -0 -0 -0 -0 -0 -0 -0 -0 -0 -0 -0 -0 -0 -1 -0 -0 -1 -1 -1
-0 -0 -0 -0 -0 -0 -0 -0 -0 -0 -0 -0 -0 -0 -0 -0 -0 -0 -0 -0 -0 -0 -0 -0 -0 -0 -0 -0 -0 -0 -0 -0 -0 -0 -0 -0 -0 -0 -0 -0 -13 -1 -3 -6 -3
-0 -0 -0 -0 -0 -0 -0 -0 -0 -0 -0 -0 -0 -0 -0 -0 -0 -0 -0 -0 -0 -0 -0 -0 -0 -0 -0 -0 -0 -0 -0 -0 -0 -0 -0 -0 -0 -1 -1 -0 -45 -7 -4 -5 -1
Wind_Speed
0 1 1 3 5 5 6 8 8 9 9 10 10 10 10 10 15 10 2 7 6 9 10 2 4 1 4 2 3 3 6 11 14 15 13 11 7 13 3 11 8 7 12 4 6
3 2 1 2 3 4 6 7 8 9 10 11 11 10 11 10 10 4 4 3 5 9 5 5 3 3 3 2 3 6 8 11 8 10 11 14 15 12 15 13 14 12 12 5 6
7 5 4 4 4 5 6 7 8 9 9 10 10 10 11 11 7 6 5 2 6 11 4 4 3 3 4 2 4 3 9 8 8 7 11 13 15 14 15 16 16 17 14 14 13
5 5 5 4 4 5 6 7 8 9 9 10 10 10 9 10 0 6 4 4 7 9 6 3 3 3 3 6 3 9 13 11 9 9 10 13 15 18 14 18 17 19 9 15 14
5 5 5 4 5 5 6 7 7 8 9 10 10 10 8 6 7 5 2 2 5 4 4 4 5 3 6 3 6 13 13 10 11 12 15 16 17 19 18 19 19 15 15 12 16
6 5 5 5 6 6 7 7 8 8 9 10 11 12 7 4 2 3 3 2 4 5 3 4 5 6 8 7 8 9 12 17 17 16 16 17 18 16 16 13 13 14 16 18 18
6 5 5 6 6 6 6 7 7 7 8 9 10 7 5 8 1 1 1 2 3 4 3 3 5 6 7 8 4 11 16 17 18 15 8 8 15 15 15 11 14 17 17 16 17
7 7 6 6 6 6 6 7 8 8 8 8 8 9 5 2 4 3 2 0 1 1 3 3 3 6 6 7 9 11 11 11 1 4 1 4 19 16 9 7 13 13 14 14 15
9 8 7 7 7 7 7 9 8 7 6 6 7 5 6 4 2 2 3 3 2 1 2 3 4 6 4 8 11 11 11 13 13 4 2 6 17 13 11 15 18 20 20 19 20
10 9 8 7 7 7 7 6 3 6 6 5 4 5 4 3 3 2 2 2 3 3 4 4 5 7 8 7 9 15 17 18 19 14 11 19 25 25 23 21 21 21 20 19 18
11 9 8 9 8 7 4 5 6 6 1 6 5 3 5 3 3 2 1 2 3 5 7 3 7 9 12 12 14 14 15 19 19 18 18 18 20 25 24 21 20 19 18 15 14
10 9 8 8 7 5 7 3 6 6 5 4 3 1 2 3 2 4 3 4 3 7 4 8 10 8 6 6 8 12 16 19 18 13 19 20 25 28 25 18 8 8 8 9 13
9 8 8 7 4 4 4 5 4 4 3 4 3 4 3 3 3 5 4 3 6 7 5 9 11 1 6 8 12 14 16 18 19 20 21 19 18 9 12 11 8 21 23 22 20
7 7 6 5 2 3 4 3 3 3 7 5 2 4 2 1 2 3 2 4 4 6 7 9 4 3 9 13 12 15 6 12 17 15 11 17 12 13 7 10 20 18 19 20 21
4 4 5 3 4 0 5 4 2 5 6 4 4 2 2 3 3 4 2 3 7 9 4 2 7 12 12 10 8 12 10 15 17 17 19 16 9 3 9 11 15 16 18 18 20
9 3 3 4 3 4 5 2 5 6 2 5 2 3 3 5 3 3 1 2 3 7 9 13 10 5 10 12 8 12 13 19 20 11 9 12 12 6 6 10 13 12 14 16 22
11 10 1 2 3 5 3 4 6 5 3 4 2 5 3 5 2 5 4 10 9 9 2 12 1 5 7 11 4 7 15 8 7 7 8 7 10 12 10 18 15 15 18 22 24
10 9 1 7 4 4 4 6 5 4 5 2 3 3 3 9 4 6 8 2 12 13 10 7 4 2 9 7 8 15 8 7 9 9 17 22 12 8 8 16 13 19 20 22 22
9 4 4 8 4 4 6 5 8 5 4 6 2 4 4 1 7 6 8 6 6 11 9 7 4 4 12 6 7 6 7 10 12 19 19 12 15 17 5 22 28 29 27 25 23
3 1 5 11 5 6 5 6 4 6 5 3 4 4 3 6 6 6 2 5 3 7 9 4 11 8 2 7 11 9 6 6 7 8 12 12 20 17 18 29 30 31 30 28 26
5 3 7 9 5 5 2 6 8 6 4 6 3 2 3 4 5 5 4 4 2 5 6 8 8 4 10 10 12 13 13 8 10 9 11 17 13 14 29 22 28 27 26 25 21
2 1 8 6 2 3 4 4 2 3 4 4 4 5 3 3 4 3 2 3 3 6 7 4 8 10 17 16 9 9 9 2 5 12 15 17 28 23 21 28 24 25 24 22 21
2 2 4 6 1 5 6 6 6 2 5 2 2 5 2 2 5 2 2 6 1 6 7 8 3 8 6 6 5 4 9 8 15 15 22 18 18 23 26 24 25 25 23 21 22
2 2 4 6 4 8 8 4 5 4 4 4 2 0 2 4 1 4 4 2 1 7 9 6 9 12 11 15 17 22 22 21 21 14 21 19 29 26 25 25 24 22 22 23 22
4 4 3 4 6 6 4 2 5 3 2 1 2 1 3 4 6 4 2 6 7 3 5 5 9 14 16 19 20 23 23 23 25 25 25 25 29 26 24 21 22 23 22 23 24
2 2 4 5 2 3 2 3 2 3 3 2 4 1 4 6 6 9 11 9 7 3 2 6 9 14 18 20 21 24 24 25 24 25 27 26 26 23 22 22 22 20 23 26 25
2 1 4 1 2 3 3 4 4 1 3 3 1 5 7 7 9 10 10 11 13 12 12 11 6 8 10 10 19 19 12 12 19 23 22 24 25 22 21 21 21 22 25 26 24
Wind_Direction
108 291 207 213 227 249 274 281 291 296 299 300 303 310 312 311 295 227 82 14 344 321 300 265 251 312 237 241 277 276 262 270 280 289 300 307 287 287 289 287 264 229 273 33 128
51 44 324 272 266 277 280 287 293 297 301 302 306 314 311 318 262 86 36 318 317 313 283 344 7 313 221 253 230 255 256 274 324 318 307 307 303 296 293 272 264 238 259 155 209
36 32 17 353 324 304 297 298 299 300 301 305 313 311 311 300 240 55 54 339 316 295 311 311 290 308 273 273 210 247 259 301 290 303 307 293 285 279 264 271 275 284 282 209 196
18 8 5 346 326 311 304 305 301 299 306 311 314 309 314 258 27 64 19 329 306 299 281 289 259 258 266 251 210 262 253 277 292 297 289 283 291 280 273 272 282 292 294 301 196
350 337 326 318 308 302 303 301 299 300 310 312 312 313 280 209 72 72 296 223 291 318 351 329 284 303 267 285 273 250 278 292 285 277 270 277 271 275 280 282 282 269 274 254 269
349 335 319 314 311 308 303 301 303 307 314 314 314 308 253 199 23 43 4 312 9 331 11 321 354 346 290 283 273 343 289 280 276 272 274 274 274 273 262 260 268 261 259 253 238
338 330 323 322 316 308 302 303 302 304 306 306 304 297 257 71 15 32 252 34 2 350 330 9 334 286 352 277 320 276 284 283 269 253 285 317 271 243 257 253 265 263 261 255 248
340 336 330 321 313 306 301 296 289 285 284 282 286 275 57 93 345 204 228 170 272 275 296 318 309 289 266 319 260 262 276 275 149 153 203 258 282 293 333 291 276 275 280 277 263
340 332 327 323 317 308 301 300 290 268 251 257 255 290 106 146 171 29 296 318 323 238 300 273 273 294 244 256 280 219 277 294 302 57 283 236 291 296 301 292 272 274 277 277 284
333 329 322 314 306 302 301 268 172 185 212 238 265 237 153 71 44 348 74 305 303 291 249 245 248 263 230 254 281 323 306 302 298 303 247 287 281 285 288 280 277 279 281 282 280
331 326 324 318 309 294 230 186 195 163 213 11 22 52 87 65 213 102 19 255 274 256 275 126 276 262 321 327 307 304 290 287 291 300 297 291 286 288 285 282 278 278 278 286 291
326 325 319 315 306 272 258 286 36 359 110 49 68 100 11 325 267 133 273 274 265 287 298 240 251 31 347 317 299 290 289 287 293 306 319 301 292 287 281 275 293 311 323 343 3
321 313 312 312 291 232 65 57 339 310 234 86 57 44 29 290 42 56 295 341 291 284 282 288 323 355 301 300 290 286 286 300 305 314 292 284 288 338 321 196 85 54 50 44 37
319 307 308 329 224 135 79 9 307 300 223 98 134 83 184 315 137 359 7 310 233 304 316 277 64 312 305 298 312 291 355 308 301 309 306 342 292 321 79 107 72 59 50 37 23
350 310 298 239 82 178 25 313 295 238 245 61 88 42 44 318 16 101 22 245 292 309 287 285 317 329 306 312 337 291 330 299 288 283 296 279 255 184 86 98 79 58 45 31 18
26 13 301 225 90 36 324 290 239 226 143 116 61 354 244 40 66 5 346 227 296 286 251 270 293 292 332 307 296 300 289 290 266 262 262 251 221 247 96 44 69 43 21 9 5
358 350 353 345 43 336 298 224 223 274 159 90 25 351 317 7 55 8 41 45 26 326 215 318 56 77 352 332 280 314 330 299 247 192 247 90 313 260 26 83 58 18 2 359 349
332 305 17 53 335 298 229 231 258 38 28 37 344 310 348 354 85 351 322 302 44 340 293 333 196 186 32 345 316 304 295 289 293 289 303 326 267 240 89 104 32 358 345 346 353
313 183 63 5 333 248 249 238 23 26 2 349 261 259 126 105 325 318 74 38 34 13 350 325 240 353 344 336 299 23 286 347 289 277 268 244 257 250 289 1 348 339 342 338 345
267 150 42 343 310 244 248 65 101 44 345 296 339 344 324 26 322 354 26 47 23 16 334 41 291 277 63 327 251 264 19 302 248 281 282 283 310 299 1 342 334 338 334 332 343
251 220 28 336 257 240 37 66 112 56 9 355 13 316 47 353 331 327 38 95 14 4 314 325 241 250 266 288 299 293 286 249 271 268 283 301 277 348 336 337 326 316 317 318 339
301 222 7 321 206 29 72 65 1 38 36 60 45 36 7 354 302 288 303 14 36 339 332 22 308 287 288 304 313 269 249 318 302 283 290 295 272 300 325 312 310 315 315 327 329
50 47 38 298 342 99 116 92 59 68 34 51 92 10 332 304 299 250 287 104 50 343 13 6 245 302 172 162 135 197 194 271 293 281 270 273 276 299 294 306 314 312 328 328 321
236 184 80 57 19 108 130 121 117 48 75 46 85 268 289 267 244 299 266 86 163 290 313 267 246 249 270 304 308 292 290 295 284 271 282 271 290 293 301 306 309 320 323 320 319
344 72 351 53 61 89 80 100 137 128 114 211 135 10 358 282 280 248 296 298 291 114 261 272 274 278 288 299 293 289 290 286 277 279 274 291 283 290 299 311 320 318 322 321 308
6 145 97 86 77 116 101 85 147 122 290 149 278 151 299 282 304 298 311 299 282 303 274 295 275 302 290 283 277 276 275 274 276 273 273 285 289 298 319 314 313 318 320 315 310
62 99 296 151 105 249 61 119 139 162 119 331 345 298 281 305 313 299 289 276 272 276 286 285 276 301 285 303 306 286 267 279 303 300 294 292 302 312 307 317 310 312 309 311 314